Torna al catalogo

COSMOS 2251 DEB

AttivoLEO
NORAD 33911·DEBRIS·🇷🇺 Russia

Lanciato Jun 16, 1993 da Plesetsk Cosmodrome

Loading…

Prossimi Passaggi (prossime 24 ore)

TLE

AggiornatoSource: Space-Track

Epoca: Sep 13, 2026, 15:54 UTC

1 33911U 93036DQ  26256.66262073  .00008345  00000-0  10760-2 0  9997
2 33911  74.0914 343.4414 0010612 213.8932 274.2887 14.81121818927073

Traccia COSMOS 2251 DEB in tempo reale con AllMySat

Download on the App Store